Find Local Weather

World > North America > United States > Missouri

Bernie, Missouri Regional Weather

Lat: 36.67N, Lon: 89.97W
Wx Zone: MOZ110
Feedback
Expires:201804221500;;332276
ASUS43 KLSX 221410
RWRMO 

WEATHER SUMMARY FOR MISSOURI
NATIONAL WEATHER SERVICE SPRINGFIELD MO
900 AM CDT SUN APR 22 2018

NOTE: "FAIR" INDICATES FEW OR NO CLOUDS BELOW 12,000 FEET WITH NO
       SIGNIFICANT WEATHER AND/OR OBSTRUCTIONS TO VISIBILITY.
       CURRENT SKY AND/OR WEATHER CONDITIONS ARE NOT AVAILABLE FOR
       CHILLICOTHE AND FARMINGTON.


MOZ072>076-082>087-097>100-106>115-221500-
...SOUTH CENTRAL AND SOUTHEAST MISSOURI...
  
CITY           SKY/WX    TMP DP  RH WIND       PRES   REMARKS
CAPE GIRARDEAU CLOUDY    53  49  86 NE16      30.08F                  
FARMINGTON     LGT RAIN  52  49  89 E10       30.11F                  
POPLAR BLUFF   LGT RAIN  52  51  97 NE10      30.06F FOG              
WEST PLAINS    CLOUDY    53  51  93 E13G24    30.01S                  
                                       
$$
  

SKY/WX - Weather  TMP - Temperature  DP - Dewpoint  RH - Relative Humidity
WIND - Wind Direction/Speed PRES - Barometric Pressure